(467991) = 2005 LW38 = 2010 EH135 = 2012 TV96 = 2012 VA65

Discovered at Kitt Peak on 2005-06-11 by Spacewatch.

Orbit

Orbit type: Main Belt

Note: WebGL enabled browser required.

epoch2023-09-13.0
epoch JD2460200.5
perihelion date2022-11-14.99308
perihelion JD2459898.49308
argument of perihelion (°)93.24376
ascending node (°)214.17789
inclination (°)9.90986
eccentricity0.1115198
perihelion distance (AU)2.7874605
Tisserand w.r.t. Jupiter3.2
ΔV w.r.t. Earth (km/sec)10.8
semimajor axis (AU)3.1373357
mean anomaly (°)53.56477
mean daily motion (°/day)0.17736270
aphelion distance (AU)3.487
period (years)5.56
P-vector [x]0.59930783
P-vector [y]-0.78569089
P-vector [z]-0.15336214
Q-vector [x]0.79465925
Q-vector [y]0.56076466
Q-vector [z]0.23250735
absolute magnitude16.37
phase slope0.15
uncertainty0
referenceMPEC 2023-Y63
observations used204
oppositions11
arc length (days)8100
first opposition used2001
last opposition used2023
residual rms (arc-secs)0.66
perturbers coarse indicatorM-v
perturbers precise indicator003Ek
first observation date used2001-10-14.0
last observation date used2023-12-18.0
computer nameMPCLINUX
Minimum Orbit Intersection Distances (in AU)
for orbit epoch: 2460200.5, reference: E2023-Y63
Mercury2.3676
Venus2.08249
Earth1.79567
Mars1.42646
Jupiter1.79107
Saturn5.67972
Uranus15.0727
Neptune26.6445

Observations

209 total observations over interval: 2001 10 14.34616 – 2023 12 18.181647
These data are available for download (format description).

Date (UT) J2000 RA J2000 Dec Magn Location Ref
2001 10 14.34616 02 30 11.62 +15 07 38.4 21.8 V 691 – Steward Observatory, Kitt Peak-Spacewatch MPS 449700
2001 10 14.36756 02 30 10.71 +15 07 31.4 21.5 V 691 – Steward Observatory, Kitt Peak-Spacewatch MPS 449700
2001 10 14.38917 02 30 09.81 +15 07 22.9 21.5 V 691 – Steward Observatory, Kitt Peak-Spacewatch MPS 449700
2005 06 11.29264 16 05 19.03 -12 24 55.1 20.7 V 691 – Steward Observatory, Kitt Peak-Spacewatch MPS 136594
2005 06 11.31006 16 05 18.30 -12 24 51.1 20.7 V 691 – Steward Observatory, Kitt Peak-Spacewatch MPS 136594
2005 06 11.32748 16 05 17.54 -12 24 47.3 20.6 V 691 – Steward Observatory, Kitt Peak-Spacewatch MPS 136594
2005 06 15.29746 16 02 40.23 -12 11 01.3 21.0 V 691 – Steward Observatory, Kitt Peak-Spacewatch MPS 136594
2005 06 15.31831 16 02 39.42 -12 10 57.1 21.0 V 691 – Steward Observatory, Kitt Peak-Spacewatch MPS 136594
2005 06 15.33914 16 02 38.60 -12 10 53.0 21.1 V 691 – Steward Observatory, Kitt Peak-Spacewatch MPS 136594
2010 03 13.31565 13 19 54.88 -13 39 33.5 21.2 V 691 – Steward Observatory, Kitt Peak-Spacewatch MPS 319514
2010 03 13.33334 13 19 54.41 -13 39 28.9 21.7 V 691 – Steward Observatory, Kitt Peak-Spacewatch MPS 319514
2010 03 13.35106 13 19 53.84 -13 39 24.7 21.5 V 691 – Steward Observatory, Kitt Peak-Spacewatch MPS 319514
2010 03 19.29663 13 16 48.79 -13 12 13.2 20.7 V 691 – Steward Observatory, Kitt Peak-Spacewatch MPS 319514
2010 03 19.31432 13 16 48.13 -13 12 08.4 20.7 V 691 – Steward Observatory, Kitt Peak-Spacewatch MPS 319514
2010 03 19.33202 13 16 47.49 -13 12 03.1 20.8 V 691 – Steward Observatory, Kitt Peak-Spacewatch MPS 319514
2010 04 15.26358 12 58 46.16 -10 21 23.8 20.6 V G96 – Mt. Lemmon Survey MPS 449700
2010 04 15.27056 12 58 45.87 -10 21 20.4 20.7 V G96 – Mt. Lemmon Survey MPS 449700
2010 04 15.27759 12 58 45.58 -10 21 17.7 20.9 V G96 – Mt. Lemmon Survey MPS 449701
2010 04 15.28466 12 58 45.26 -10 21 14.5 20.8 V G96 – Mt. Lemmon Survey MPS 449701
2012 09 16.38754 02 01 15.84 +15 46 48.0 20.7 V 691 – Steward Observatory, Kitt Peak-Spacewatch MPS 449701
2012 09 16.40548 02 01 15.46 +15 46 43.6 20.8 V 691 – Steward Observatory, Kitt Peak-Spacewatch MPS 449701
2012 09 16.42343 02 01 15.02 +15 46 39.9 21.2 V 691 – Steward Observatory, Kitt Peak-Spacewatch MPS 449701
2012 10 08.20161 01 49 27.40 +13 50 58.2 21.0 V 691 – Steward Observatory, Kitt Peak-Spacewatch MPS 435540
2012 10 08.21925 01 49 26.67 +13 50 51.3 20.6 V 691 – Steward Observatory, Kitt Peak-Spacewatch MPS 435540
2012 10 08.23691 01 49 25.90 +13 50 44.9 20.7 V 691 – Steward Observatory, Kitt Peak-Spacewatch MPS 435540
2012 10 11.349991 01 47 15.534 +13 30 02.64 20.8 w F51 – Pan-STARRS 1, Haleakala MPS 435540
2012 10 11.364995 01 47 14.873 +13 29 56.66 20.5 w F51 – Pan-STARRS 1, Haleakala MPS 435540
2012 10 11.379981 01 47 14.216 +13 29 50.46 20.6 w F51 – Pan-STARRS 1, Haleakala MPS 435540
2012 10 11.395072 01 47 13.550 +13 29 44.38 20.5 w F51 – Pan-STARRS 1, Haleakala MPS 435540
2012 10 23.14372 01 38 42.29 +12 07 00.4 20.5 V 691 – Steward Observatory, Kitt Peak-Spacewatch MPS 448804
2012 10 23.16143 01 38 41.47 +12 06 53.5 20.2 V 691 – Steward Observatory, Kitt Peak-Spacewatch MPS 448804
2012 10 23.17915 01 38 40.66 +12 06 44.9 20.2 V 691 – Steward Observatory, Kitt Peak-Spacewatch MPS 448804
2012 11 07.16957 01 28 43.78 +10 22 51.3 20.8 V G96 – Mt. Lemmon Survey MPS 442071
2012 11 07.17505 01 28 43.60 +10 22 49.4 21.0 V G96 – Mt. Lemmon Survey MPS 442071
2012 11 07.18053 01 28 43.42 +10 22 47.2 20.5 V G96 – Mt. Lemmon Survey MPS 442071
2012 11 07.18603 01 28 43.21 +10 22 44.9 20.7 V G96 – Mt. Lemmon Survey MPS 442071
2012 11 14.08013 01 25 05.49 +09 40 26.2 20.7 V 691 – Steward Observatory, Kitt Peak-Spacewatch MPS 442071
2012 11 14.10664 01 25 04.68 +09 40 16.3 21.1 V 691 – Steward Observatory, Kitt Peak-Spacewatch MPS 442071
2012 11 14.14870 01 25 03.45 +09 40 01.7 20.9 V 691 – Steward Observatory, Kitt Peak-Spacewatch MPS 442071
2015 03 20.02676 10 18 58.57 -00 57 40.5 21.3 r W84 – Cerro Tololo-DECam MPS 1224606
2015 03 20.03287 10 18 58.37 -00 57 38.4   W84 – Cerro Tololo-DECam MPS 1224606
2015 03 20.05771 10 18 57.48 -00 57 29.0 21.8 g W84 – Cerro Tololo-DECam MPS 1224606
2015 03 20.06151 10 18 57.33 -00 57 27.0   W84 – Cerro Tololo-DECam MPS 1224606
2015 03 20.06531 10 18 57.22 -00 57 26.3   W84 – Cerro Tololo-DECam MPS 1224606
2015 03 20.06910 10 18 57.07 -00 57 24.6   W84 – Cerro Tololo-DECam MPS 1224606
2015 03 20.07289 10 18 56.94 -00 57 23.6   W84 – Cerro Tololo-DECam MPS 1224606
2015 03 20.07669 10 18 56.79 -00 57 21.8   W84 – Cerro Tololo-DECam MPS 1224606
2015 03 20.08048 10 18 56.66 -00 57 20.4   W84 – Cerro Tololo-DECam MPS 1224606
2015 03 20.08427 10 18 56.54 -00 57 19.0   W84 – Cerro Tololo-DECam MPS 1224606
2015 03 20.08807 10 18 56.40 -00 57 17.7   W84 – Cerro Tololo-DECam MPS 1224606
2015 03 20.09186 10 18 56.25 -00 57 16.2   W84 – Cerro Tololo-DECam MPS 1224606
2015 03 20.09786 10 18 56.04 -00 57 14.0   W84 – Cerro Tololo-DECam MPS 1224606
2015 03 20.10397 10 18 55.84 -00 57 11.8   W84 – Cerro Tololo-DECam MPS 1224606
2015 03 20.11008 10 18 55.62 -00 57 09.5   W84 – Cerro Tololo-DECam MPS 1224606
2015 03 20.11618 10 18 55.38 -00 57 07.0   W84 – Cerro Tololo-DECam MPS 1224606
2015 03 20.12228 10 18 55.17 -00 57 04.8   W84 – Cerro Tololo-DECam MPS 1224606
2015 03 20.12839 10 18 54.95 -00 57 02.6   W84 – Cerro Tololo-DECam MPS 1224606
2015 03 20.13449 10 18 54.74 -00 57 00.4   W84 – Cerro Tololo-DECam MPS 1224606
2015 03 20.14060 10 18 54.51 -00 56 58.0   W84 – Cerro Tololo-DECam MPS 1224606
2015 03 21.38216 10 18 12.464 -00 49 17.64 21.2 w F51 – Pan-STARRS 1, Haleakala MPS 592462
2015 03 21.39480 10 18 12.016 -00 49 13.03 21.4 w F51 – Pan-STARRS 1, Haleakala MPS 592462
2015 03 21.40734 10 18 11.589 -00 49 08.27 21.4 w F51 – Pan-STARRS 1, Haleakala MPS 592462
2015 03 21.41998 10 18 11.146 -00 49 03.46 21.6 w F51 – Pan-STARRS 1, Haleakala MPS 592462
2016 05 04.43741 15 38 10.876 -14 47 43.85 20.4 w F51 – Pan-STARRS 1, Haleakala MPS 706086
2016 05 04.45002 15 38 10.309 -14 47 39.56 20.5 w F51 – Pan-STARRS 1, Haleakala MPS 706086
2016 05 04.46264 15 38 09.760 -14 47 35.25 20.5 w F51 – Pan-STARRS 1, Haleakala MPS 706086
2016 05 04.47525 15 38 09.199 -14 47 30.58 20.5 w F51 – Pan-STARRS 1, Haleakala MPS 706086
2016 05 10.29131 15 33 52.71 -14 13 33.1 19.6 r G45 – Space Surveillance Telescope, Atom Site MPS 708342
2016 05 10.29667 15 33 52.45 -14 13 31.8 20.2 r G45 – Space Surveillance Telescope, Atom Site MPS 708342
2016 05 10.30135 15 33 52.21 -14 13 29.6 20.7 r G45 – Space Surveillance Telescope, Atom Site MPS 708342
2016 05 10.31085 15 33 51.76 -14 13 26.7 20.7 r G45 – Space Surveillance Telescope, Atom Site MPS 708342
2016 06 07.27410 15 14 06.35 -11 48 39.1 21.2 V G96 – Mt. Lemmon Survey MPS 716647
2016 06 07.27973 15 14 06.11 -11 48 37.2 20.3 V G96 – Mt. Lemmon Survey MPS 716647
2016 06 07.28531 15 14 05.94 -11 48 36.2 21.2 V G96 – Mt. Lemmon Survey MPS 716647
2016 06 07.29088 15 14 05.71 -11 48 34.6 20.9 V G96 – Mt. Lemmon Survey MPS 716647
2017 07 29.54046 22 28 29.041 +04 39 31.99 20.7 w F51 – Pan-STARRS 1, Haleakala MPS 809290
2017 07 29.55374 22 28 28.665 +04 39 31.16 20.8 w F51 – Pan-STARRS 1, Haleakala MPS 809290
2017 08 23.47505 22 13 20.744 +03 15 02.06 20.3 w F51 – Pan-STARRS 1, Haleakala MPS 813341
2017 08 23.48703 22 13 20.218 +03 14 58.09 20.1 w F51 – Pan-STARRS 1, Haleakala MPS 813341
2017 08 23.49895 22 13 19.698 +03 14 54.20 20.3 w F51 – Pan-STARRS 1, Haleakala MPS 813341
2017 08 23.51093 22 13 19.171 +03 14 50.14 20.3 w F51 – Pan-STARRS 1, Haleakala MPS 813341
2017 08 24.46583 22 12 39.015 +03 09 31.38 20.2 w F51 – Pan-STARRS 1, Haleakala MPS 813341
2017 08 24.47716 22 12 38.519 +03 09 27.45 20.3 w F51 – Pan-STARRS 1, Haleakala MPS 813341
2017 08 24.48845 22 12 38.017 +03 09 23.73 20.4 w F51 – Pan-STARRS 1, Haleakala MPS 813341
2017 08 24.49971 22 12 37.532 +03 09 19.74 20.3 w F51 – Pan-STARRS 1, Haleakala MPS 813341
2017 10 23.22727 21 54 01.436 -02 51 54.96 21.2 w F51 – Pan-STARRS 1, Haleakala MPS 831640
2017 10 23.23925 21 54 01.624 -02 51 57.67 21.2 w F51 – Pan-STARRS 1, Haleakala MPS 831640
2017 10 23.25124 21 54 01.823 -02 52 00.08 21.3 w F51 – Pan-STARRS 1, Haleakala MPS 831640
2017 10 23.26335 21 54 02.007 -02 52 02.71 21.2 w F51 – Pan-STARRS 1, Haleakala MPS 831640
2018 11 05.38271 04 15 11.63 +15 28 34.2 21.0 G G96 – Mt. Lemmon Survey MPS 937069
2018 11 05.38709 04 15 11.40 +15 28 32.3 19.9 G G96 – Mt. Lemmon Survey MPS 937069
